Weather History for Pinedale, WY

Change the Weather History Date:

Monday, November 26, 2012

  Actual Average (KBPI) Record (KBPI)
Temperature  
Mean Temperature 21 °F 18 °F  
Max Temperature 32 °F 31 °F 55 °F (1990)
Min Temperature 10 °F 5 °F -23 °F (1984)
Degree Days  
Heating Degree Days 44 47  
Month to date heating degree days 1044  
Since 1 July heating degree days 2624  
Cooling Degree Days 0 0  
Month to date cooling degree days 0  
Year to date cooling degree days 35  
Moisture  
Dew Point 16 °F    
Average Humidity 79    
Maximum Humidity 100    
Minimum Humidity 51    
Precipitation  
Precipitation 0.00 in 0.01 in 0.18 in (1997)
Month to date precipitation 0.19  
Year to date precipitation 6.16  
Sea Level Pressure  
Sea Level Pressure 30.21 in    
Wind  
Wind Speed 4 mph (WNW)    
Max Wind Speed 10 mph    
Max Gust Speed -    
Visibility 10 miles    
Events      
T = Trace of Precipitation, MM = Missing Value Source: NWS Daily Summary

Daily Weather History Graph

Daily Weather History Graph

Search for Another Location

Airport:

Trip Planner

Search our weather history database for the weather conditions in past years. The results will help you decide how hot, cold, wet, or windy it might be!

Date:

Astronomy

Nov. 26, 2012 Rise Set
Actual Time 7:25 AM MST 4:48 PM MST
Civil Twilight 6:53 AM MST 5:19 PM MST
Nautical Twilight 6:18 AM MST 5:54 PM MST
Astronomical Twilight 5:44 AM MST 6:28 PM MST
Moon 3:43 PM MST (11/26) 5:37 AM MST (11/26)
Length of Visible Light 10h 25m
Length of Day
9h 22m
Waxing Gibbous, 97% of the Moon is Illuminated
Nov 26
Waxing Gibbous
Nov 28
Full
Dec 6
Last Quarter
Dec 13
New
Dec 19
First Quarter

Hourly Weather History & Observations

Time (MST) Temp. Windchill Dew Point Humidity Pressure Visibility Wind Dir Wind Speed Gust Speed Precip Events Conditions
12:15 AM 24.8 °F 17.9 °F 19.4 °F 80% 30.11 in 10.0 mi West 5.8 mph - N/A   Clear
12:35 AM 23.0 °F 15.8 °F 19.4 °F 86% 30.11 in 10.0 mi NW 5.8 mph - N/A   Clear
12:55 AM 21.2 °F 10.9 °F 19.4 °F 93% 30.11 in 10.0 mi West 9.2 mph - N/A   Clear
1:15 AM 23.0 °F 15.8 °F 19.4 °F 86% 30.11 in 10.0 mi NW 5.8 mph - N/A   Scattered Clouds
1:35 AM 23.0 °F 13.9 °F 19.4 °F 86% 30.11 in 10.0 mi WNW 8.1 mph - N/A   Mostly Cloudy
1:55 AM 21.2 °F 14.9 °F 19.4 °F 93% 30.11 in 10.0 mi NNW 4.6 mph - N/A   Scattered Clouds
2:15 AM 23.0 °F 14.7 °F 19.4 °F 86% 30.13 in 10.0 mi NNW 6.9 mph - N/A   Scattered Clouds
2:35 AM 19.4 °F 12.8 °F 17.6 °F 93% 30.14 in 10.0 mi WNW 4.6 mph - N/A   Scattered Clouds
2:55 AM 19.4 °F - 17.6 °F 93% 30.14 in 10.0 mi Calm Calm - N/A   Clear
3:15 AM 19.4 °F 10.4 °F 19.4 °F 100% 30.14 in 10.0 mi WNW 6.9 mph - N/A   Clear
3:35 AM 21.2 °F 10.9 °F 19.4 °F 93% 30.14 in 10.0 mi WNW 9.2 mph - N/A   Clear
3:55 AM 21.2 °F 12.6 °F 19.4 °F 93% 30.14 in 10.0 mi NW 6.9 mph - N/A   Scattered Clouds
4:15 AM 21.2 °F 14.9 °F 19.4 °F 93% 30.15 in 10.0 mi WNW 4.6 mph - N/A   Scattered Clouds
4:35 AM 21.2 °F 10.1 °F 17.6 °F 86% 30.15 in 10.0 mi WNW 10.4 mph - N/A   Clear
4:55 AM 19.4 °F 8.6 °F 17.6 °F 93% 30.16 in 10.0 mi WNW 9.2 mph - N/A   Clear
5:15 AM 19.4 °F 9.5 °F 15.8 °F 86% 30.18 in 10.0 mi WNW 8.1 mph - N/A   Clear
5:35 AM 19.4 °F - 14.0 °F 80% 30.18 in 10.0 mi Calm Calm - N/A   Clear
5:55 AM 17.6 °F - 14.0 °F 86% 30.19 in 10.0 mi Calm Calm - N/A   Clear
6:15 AM 17.6 °F 10.7 °F 14.0 °F 86% 30.20 in 10.0 mi NNW 4.6 mph - N/A   Clear
6:35 AM 17.6 °F - 14.0 °F 86% 30.21 in 10.0 mi Calm Calm - N/A   Clear
6:55 AM 15.8 °F 7.2 °F 12.2 °F 86% 30.22 in 10.0 mi West 5.8 mph - N/A   Clear
7:15 AM 14.0 °F 8.2 °F 12.2 °F 93% 30.23 in 10.0 mi NW 3.5 mph - N/A   Scattered Clouds
7:35 AM 14.0 °F - 12.2 °F 93% 30.24 in 10.0 mi Calm Calm - N/A   Clear
7:55 AM 14.0 °F 8.2 °F 12.2 °F 93% 30.25 in 10.0 mi West 3.5 mph - N/A   Clear
8:15 AM 17.6 °F 12.3 °F 14.0 °F 86% 30.26 in 10.0 mi WNW 3.5 mph - N/A   Clear
8:55 AM 19.4 °F - 15.8 °F 86% 30.27 in 10.0 mi Calm Calm - N/A   Clear
9:15 AM 21.2 °F 16.4 °F 17.6 °F 86% 30.27 in 10.0 mi ESE 3.5 mph - N/A   Clear
9:35 AM 23.0 °F 18.4 °F 17.6 °F 80% 30.27 in 10.0 mi SE 3.5 mph - N/A   Clear
9:55 AM 23.0 °F 15.8 °F 19.4 °F 86% 30.27 in 10.0 mi ESE 5.8 mph - N/A   Clear
10:15 AM 26.6 °F 20.0 °F 19.4 °F 74% 30.27 in 10.0 mi SSE 5.8 mph - N/A   Clear
10:35 AM 28.4 °F 23.3 °F 19.4 °F 69% 30.27 in 10.0 mi South 4.6 mph - N/A   Scattered Clouds
10:55 AM 28.4 °F - 17.6 °F 64% 30.27 in 10.0 mi Calm Calm - N/A   Mostly Cloudy
11:15 AM 28.4 °F 24.6 °F 17.6 °F 64% 30.27 in 10.0 mi ESE 3.5 mph - N/A   Scattered Clouds
11:35 AM 30.2 °F - 17.6 °F 60% 30.27 in 10.0 mi Calm Calm - N/A   Scattered Clouds
11:55 AM 30.2 °F - 17.6 °F 60% 30.26 in 10.0 mi Calm Calm - N/A   Scattered Clouds
12:15 PM 30.2 °F - 15.8 °F 55% 30.26 in 10.0 mi Calm Calm - N/A   Scattered Clouds
12:35 PM 30.2 °F - 17.6 °F 60% 30.26 in 10.0 mi Calm Calm - N/A   Scattered Clouds
12:55 PM 32.0 °F 28.7 °F 17.6 °F 55% 30.24 in 10.0 mi NE 3.5 mph - N/A   Clear
1:15 PM 30.2 °F - 15.8 °F 55% 30.23 in 10.0 mi Calm Calm - N/A   Clear
1:35 PM 32.0 °F - 15.8 °F 51% 30.22 in 10.0 mi Calm Calm - N/A   Clear
1:55 PM 32.0 °F - 17.6 °F 55% 30.21 in 10.0 mi Calm Calm - N/A   Clear
2:15 PM 32.0 °F 28.7 °F 17.6 °F 55% 30.22 in 10.0 mi West 3.5 mph - N/A   Clear
2:35 PM 32.0 °F - 17.6 °F 55% 30.21 in 10.0 mi Calm Calm - N/A   Clear
2:55 PM 32.0 °F - 15.8 °F 51% 30.21 in 10.0 mi Calm Calm - N/A   Clear
3:15 PM 32.0 °F - 15.8 °F 51% 30.21 in 10.0 mi Calm Calm - N/A   Clear
3:35 PM 32.0 °F - 15.8 °F 51% 30.21 in 10.0 mi Calm Calm - N/A   Clear
3:55 PM 32.0 °F 28.7 °F 15.8 °F 51% 30.21 in 10.0 mi West 3.5 mph - N/A   Clear
4:15 PM 32.0 °F 27.5 °F 17.6 °F 55% 30.22 in 10.0 mi West 4.6 mph - N/A   Clear
4:35 PM 30.2 °F 26.7 °F 17.6 °F 60% 30.21 in 10.0 mi West 3.5 mph - N/A   Clear
4:55 PM 26.6 °F 22.6 °F 17.6 °F 69% 30.21 in 10.0 mi West 3.5 mph - N/A   Clear
5:15 PM 26.6 °F - 19.4 °F 74% 30.22 in 10.0 mi Calm Calm - N/A   Clear
5:35 PM 24.8 °F 17.9 °F 19.4 °F 80% 30.22 in 10.0 mi West 5.8 mph - N/A   Scattered Clouds
5:55 PM 23.0 °F - 17.6 °F 80% 30.22 in 10.0 mi Calm Calm - N/A   Clear
6:15 PM 23.0 °F - 19.4 °F 86% 30.22 in 10.0 mi Calm Calm - N/A   Clear
6:35 PM 23.0 °F - 17.6 °F 80% 30.22 in 10.0 mi Calm Calm - N/A   Clear
6:55 PM 21.2 °F - 17.6 °F 86% 30.22 in 10.0 mi Calm Calm - N/A   Clear
7:15 PM 21.2 °F 16.4 °F 17.6 °F 86% 30.22 in 10.0 mi NW 3.5 mph - N/A   Clear
7:35 PM 19.4 °F 12.8 °F 15.8 °F 86% 30.23 in 10.0 mi NW 4.6 mph - N/A   Clear
7:55 PM 19.4 °F - 15.8 °F 86% 30.23 in 10.0 mi Calm Calm - N/A   Scattered Clouds
8:15 PM 19.4 °F - 14.0 °F 80% 30.23 in 10.0 mi Calm Calm - N/A   Scattered Clouds
8:35 PM 19.4 °F 11.5 °F 14.0 °F 80% 30.24 in 10.0 mi WNW 5.8 mph - N/A   Clear
8:55 PM 17.6 °F 8.2 °F 14.0 °F 86% 30.24 in 10.0 mi West 6.9 mph - N/A   Scattered Clouds
9:15 PM 15.8 °F 8.6 °F 12.2 °F 86% 30.24 in 10.0 mi West 4.6 mph - N/A   Mostly Cloudy
9:35 PM 14.0 °F 3.9 °F 12.2 °F 93% 30.24 in 10.0 mi West 6.9 mph - N/A   Mostly Cloudy
9:55 PM 14.0 °F 3.9 °F 14.0 °F 100% 30.25 in 10.0 mi WNW 6.9 mph - N/A   Mostly Cloudy
10:15 PM 14.0 °F 5.1 °F 12.2 °F 93% 30.25 in 10.0 mi WNW 5.8 mph - N/A   Mostly Cloudy
10:35 PM 12.2 °F 2.9 °F 10.4 °F 92% 30.25 in 10.0 mi WNW 5.8 mph - N/A   Scattered Clouds
10:55 PM 12.2 °F 1.7 °F 10.4 °F 92% 30.25 in 10.0 mi West 6.9 mph - N/A   Scattered Clouds
11:15 PM 12.2 °F 2.9 °F 10.4 °F 92% 30.25 in 10.0 mi West 5.8 mph - N/A   Scattered Clouds
11:35 PM 10.4 °F -0.4 °F 10.4 °F 100% 30.25 in 10.0 mi WNW 6.9 mph - N/A   Scattered Clouds
11:55 PM 12.2 °F 4.3 °F 8.6 °F 85% 30.26 in 10.0 mi NW 4.6 mph - N/A   Scattered Clouds